Temp_Advection
nan nan nan nan nan nan nan nan nan nan nan nan nan nan nan nan nan nan nan nan nan nan
nan -0 -0 -0 0 0 0 0 -0 -1 -1 -1 -0 -0 0 -0 -1 -1 -1 -1 -1 nan
nan -1 -0 -1 -0 -0 -0 0 0 -0 -0 -1 -1 -1 -0 -0 0 -0 -1 -1 -2 nan
nan -1 -0 -0 -1 -1 -1 -0 -0 -0 -0 -0 -0 -1 -1 -1 0 0 -1 -1 -1 nan
nan -0 -1 -1 -0 -1 -1 -0 -0 -1 -0 0 0 0 -0 -1 -0 0 -1 -0 -0 nan
nan -0 -0 -0 -0 -0 -0 -1 -0 -0 -0 -0 0 0 0 -0 -1 -1 -1 0 -0 nan
nan -0 -0 -0 -0 -0 -0 -0 -0 0 0 0 0 0 0 0 -0 -0 -1 -0 -0 nan
nan -0 -0 -0 -0 0 0 0 0 0 0 1 1 0 0 -0 -0 -0 -0 -0 -0 nan
nan -0 -0 0 0 -0 -0 0 0 0 0 0 1 -0 -1 -1 -0 -0 -0 0 -0 nan
nan -0 -0 0 0 0 -0 -0 -0 -0 -0 -0 0 0 -1 -1 -1 -0 -0 -0 -0 nan
nan -0 -1 0 -0 0 -0 -0 0 -0 -0 -1 -0 -1 -1 -1 -1 -0 0 0 0 nan
nan -0 -1 -0 -0 -0 0 -0 -0 0 -0 0 0 -0 -1 -1 -1 -0 -0 0 0 nan
nan 0 0 -1 -1 -1 -0 -0 -0 0 -0 -0 -0 0 -0 -1 -2 -2 0 1 1 nan
nan nan nan nan nan nan nan nan nan nan nan nan nan nan nan nan nan nan nan nan nan nan
Wind_Speed
32 33 35 36 37 38 39 40 39 38 38 38 37 37 36 37 37 36 36 36 35 34
33 34 35 36 38 39 40 41 41 40 40 40 40 39 39 40 39 38 38 38 37 38
34 35 36 38 39 40 41 42 42 42 42 41 40 40 40 42 42 41 41 40 39 39
37 37 39 40 41 42 43 43 43 43 43 43 42 41 41 42 43 41 41 41 40 41
39 40 41 43 44 44 45 44 44 43 44 44 43 42 41 42 42 41 42 42 41 42
40 42 44 45 46 45 45 46 45 44 44 44 44 44 43 43 44 44 45 45 44 46
42 44 46 47 47 47 46 46 45 44 45 45 45 45 45 46 47 48 49 48 48 47
45 46 48 48 48 47 46 45 45 45 46 46 46 47 45 44 45 47 48 49 49 48
46 48 49 49 49 47 46 45 45 47 48 49 48 43 41 42 46 49 52 54 53 53
48 49 49 49 48 47 46 47 48 48 49 51 51 47 44 43 46 50 53 54 51 50
48 48 49 48 47 47 47 49 52 53 53 52 51 45 44 44 46 50 54 56 56 53
47 48 47 47 47 48 51 53 53 52 50 48 49 42 41 43 47 51 54 55 56 54
46 45 46 45 48 50 53 52 50 49 48 44 45 41 40 40 43 49 51 57 56 49
44 44 44 47 50 52 50 50 47 48 47 45 43 44 42 40 43 46 50 45 48 48
Wind_Direction
321 319 320 321 319 317 317 316 315 312 309 307 303 299 295 291 288 285 282 280 278 277
320 320 320 319 317 316 314 313 311 308 306 303 301 298 296 293 289 286 283 280 278 276
320 321 320 318 317 315 314 312 310 307 304 301 298 295 293 290 289 286 283 280 278 275
323 323 321 319 317 316 314 312 309 307 304 301 298 295 291 287 286 281 279 276 273 272
324 325 323 321 320 320 316 314 311 308 304 301 298 294 288 285 281 275 272 271 269 267
326 326 324 323 322 320 317 314 311 308 305 302 298 293 288 283 280 276 274 272 266 266
328 327 326 325 323 321 318 313 312 309 305 301 298 293 289 282 277 274 272 270 266 263
329 328 327 325 323 320 317 314 313 310 306 304 300 295 289 284 281 277 274 272 270 267
330 329 328 326 323 321 319 317 314 311 309 306 301 292 282 276 273 272 271 270 268 269
331 329 328 326 325 324 321 319 316 315 311 306 304 297 286 278 273 271 268 266 261 260
332 330 329 328 327 325 323 321 318 310 306 301 299 294 286 281 276 272 270 267 263 257
333 332 331 331 330 328 327 320 316 312 308 305 302 296 290 285 282 278 274 269 263 255
335 334 334 333 333 331 325 318 315 313 311 316 309 313 301 293 287 285 281 270 257 251
337 339 338 337 335 328 321 325 320 318 323 321 322 318 309 296 290 288 289 282 251 246
Height
1536 1530 1524 1518 1512 1507 1502 1498 1494 1490 1486 1482 1479 1475 1473 1470 1468 1466 1464 1462 1461 1460
1528 1523 1517 1511 1506 1500 1495 1490 1486 1482 1477 1473 1469 1466 1462 1458 1456 1455 1453 1451 1450 1449
1521 1516 1509 1503 1498 1492 1487 1481 1476 1471 1467 1462 1459 1456 1453 1448 1446 1443 1441 1440 1439 1438
1514 1508 1502 1495 1489 1483 1477 1472 1465 1460 1455 1451 1447 1444 1441 1437 1435 1432 1430 1429 1428 1426
1506 1500 1493 1486 1479 1473 1465 1460 1454 1449 1443 1438 1435 1432 1429 1425 1423 1421 1418 1417 1416 1413
1497 1491 1484 1477 1470 1463 1455 1448 1443 1438 1431 1426 1422 1419 1416 1413 1409 1407 1404 1402 1402 1400
1490 1483 1475 1468 1460 1452 1445 1437 1431 1426 1419 1414 1409 1405 1402 1399 1395 1392 1389 1388 1387 1386
1482 1475 1466 1458 1450 1442 1435 1427 1420 1412 1406 1401 1396 1392 1387 1384 1380 1376 1373 1371 1371 1371
1475 1466 1458 1449 1440 1432 1423 1416 1409 1401 1394 1387 1382 1378 1376 1373 1368 1364 1360 1356 1356 1356
1468 1458 1449 1440 1430 1421 1413 1405 1397 1389 1382 1374 1368 1363 1360 1357 1353 1349 1346 1344 1344 1344
1461 1451 1441 1431 1421 1412 1403 1394 1385 1376 1369 1361 1354 1350 1346 1342 1338 1333 1329 1327 1327 1328
1454 1443 1433 1422 1412 1403 1392 1383 1374 1366 1357 1350 1342 1336 1331 1327 1321 1315 1310 1308 1308 1310
1448 1438 1426 1416 1405 1394 1384 1373 1366 1356 1348 1338 1328 1322 1315 1311 1305 1297 1291 1284 1283 1289
1442 1431 1421 1409 1398 1387 1377 1367 1357 1347 1336 1326 1316 1307 1301 1295 1289 1282 1275 1267 1265 1267